Weather History for KJOT - July, 2013

Change the Weather History Date:

Monday, July 22, 2013

  Actual Average (KLOT) Record (KLOT)
Temperature  
Mean Temperature 76 °F 74 °F  
Max Temperature 86 °F 84 °F 93 °F (2001)
Min Temperature 66 °F 64 °F 54 °F (1996)
Degree Days  
Heating Degree Days 0 0  
Month to date heating degree days 0  
Since 1 June heating degree days 33  
Since 1 July heating degree days 0  
Cooling Degree Days 11 9  
Month to date cooling degree days 198  
Year to date cooling degree days 436  
Since 1 June cooling degree days 378  
Growing Degree Days 26 (Base 50)    
Moisture  
Dew Point 66 °F    
Average Humidity 70    
Maximum Humidity 95    
Minimum Humidity 45    
Precipitation  
Precipitation 0.00 in 0.17 in 0.69 in (2004)
Month to date precipitation 3.22  
Year to date precipitation 22.26  
Sea Level Pressure  
Sea Level Pressure 29.83 in    
Wind  
Wind Speed 2 mph (SW)    
Max Wind Speed 17 mph    
Max Gust Speed 30 mph    
Visibility 10 miles    
Events      
T = Trace of Precipitation, MM = Missing Value Source: NWS Daily Summary

Daily Weather History Graph

Daily Weather History Graph

Search for Another Location

Airport or City:

Trip Planner

Search our weather history database for the weather conditions in past years. The results will help you decide how hot, cold, wet, or windy it might be!

Date:

Astronomy

Jul. 22, 2013 Rise Set
Actual Time 5:38 AM CDT 8:19 PM CDT
Civil Twilight 5:05 AM CDT 8:51 PM CDT
Nautical Twilight 4:25 AM CDT 9:32 PM CDT
Astronomical Twilight 3:39 AM CDT 10:17 PM CDT
Moon 8:04 PM CDT (7/22) 5:35 AM CDT (7/22)
Length of Visible Light 15h 45m
Length of Day
14h 41m
Full, 100% of the Moon is Illuminated
Jul 22
Full
Jul 22
Full
Jul 29
Last Quarter
Aug 6
New
Aug 14
First Quarter

Hourly Weather History & Observations

Time (CDT) Temp. Heat Index Dew Point Humidity Pressure Visibility Wind Dir Wind Speed Gust Speed Precip Events Conditions
12:15 AM 71.6 °F - 66.2 °F 83% 29.89 in 10.0 mi Calm Calm - N/A   Clear
12:35 AM 71.6 °F - 66.2 °F 83% 29.88 in 10.0 mi ESE 5.8 mph - N/A   Scattered Clouds
12:55 AM 71.6 °F - 66.2 °F 83% 29.88 in 10.0 mi NE 3.5 mph - N/A   Scattered Clouds
1:15 AM 70.9 °F - 66.2 °F 85% 29.87 in 10.0 mi Calm Calm - N/A   Scattered Clouds
1:35 AM 70.9 °F - 66.2 °F 85% 29.87 in 10.0 mi Calm Calm - N/A   Scattered Clouds
1:55 AM 71.2 °F - 66.4 °F 85% 29.87 in 10.0 mi Calm Calm - N/A   Mostly Cloudy
2:15 AM 71.1 °F - 66.6 °F 86% 29.87 in 10.0 mi Calm Calm - N/A   Mostly Cloudy
2:35 AM 71.6 °F - 66.6 °F 84% 29.87 in 10.0 mi ESE 3.5 mph - N/A   Mostly Cloudy
2:55 AM 71.6 °F - 66.7 °F 85% 29.86 in 10.0 mi Calm Calm - N/A   Mostly Cloudy
3:15 AM 70.3 °F - 66.7 °F 88% 29.85 in 10.0 mi Calm Calm - N/A   Scattered Clouds
3:35 AM 70.2 °F - 66.2 °F 87% 29.84 in 10.0 mi Calm Calm - N/A   Scattered Clouds
3:55 AM 69.4 °F - 65.8 °F 88% 29.84 in 10.0 mi Calm Calm - N/A   Clear
4:15 AM 68.0 °F - 65.3 °F 91% 29.84 in 10.0 mi Calm Calm - N/A   Clear
4:35 AM 69.3 °F - 66.2 °F 90% 29.84 in 10.0 mi Calm Calm - N/A   Clear
4:55 AM 67.1 °F - 65.1 °F 93% 29.84 in 7.0 mi Calm Calm - N/A   Clear
5:15 AM 66.4 °F - 64.4 °F 93% 29.85 in 5.0 mi Calm Calm - N/A   Clear
5:35 AM 66.7 °F - 64.8 °F 93% 29.85 in 5.0 mi Calm Calm - N/A   Clear
5:55 AM 68.4 °F - 65.5 °F 90% 29.86 in 10.0 mi Calm Calm - N/A   Clear
6:15 AM 66.2 °F - 64.0 °F 93% 29.85 in 7.0 mi Calm Calm - N/A   Clear
6:35 AM 66.9 °F - 65.5 °F 95% 29.86 in 7.0 mi Calm Calm - N/A   Clear
6:55 AM 69.3 °F - 67.3 °F 93% 29.86 in 7.0 mi Calm Calm - N/A   Clear
7:15 AM 70.9 °F - 67.1 °F 88% 29.86 in 10.0 mi SE 3.5 mph - N/A   Scattered Clouds
7:35 AM 72.1 °F - 67.1 °F 84% 29.85 in 10.0 mi SSE 3.5 mph - N/A   Scattered Clouds
7:55 AM 72.1 °F - 67.1 °F 84% 29.86 in 10.0 mi SE 3.5 mph - N/A   Mostly Cloudy
8:35 AM 74.3 °F - 68.4 °F 82% 29.86 in 7.0 mi South 3.5 mph - N/A   Scattered Clouds
9:35 AM 76.5 °F - 67.8 °F 75% 29.86 in 10.0 mi Calm Calm - N/A   Clear
9:55 AM 76.8 °F - 67.1 °F 72% 29.86 in 10.0 mi Calm Calm - N/A   Scattered Clouds
10:15 AM 77.9 °F - 67.3 °F 70% 29.85 in 10.0 mi Calm Calm - N/A   Scattered Clouds
10:35 AM 79.3 °F - 67.8 °F 68% 29.84 in 10.0 mi Calm Calm - N/A   Scattered Clouds
10:55 AM 79.9 °F - 64.9 °F 60% 29.84 in 10.0 mi Calm Calm - N/A   Clear
11:15 AM 80.1 °F 81.8 °F 64.8 °F 59% 29.84 in 10.0 mi South 3.5 mph - N/A   Scattered Clouds
11:35 AM 80.4 °F 82.2 °F 64.8 °F 59% 29.85 in 10.0 mi South 3.5 mph - N/A   Clear
11:55 AM 83.3 °F 85.1 °F 65.1 °F 54% 29.85 in 10.0 mi WSW 5.8 mph - N/A   Scattered Clouds
12:15 PM 81.0 °F 82.9 °F 65.5 °F 59% 29.85 in 10.0 mi West 4.6 mph - N/A   Scattered Clouds
12:35 PM 83.7 °F 85.5 °F 65.3 °F 54% 29.85 in 10.0 mi NNW 3.5 mph - N/A   Scattered Clouds
12:55 PM 82.4 °F 84.4 °F 65.8 °F 57% 29.84 in 10.0 mi West 5.8 mph - N/A   Scattered Clouds
1:15 PM 82.6 °F 84.3 °F 65.1 °F 55% 29.83 in 10.0 mi West 5.8 mph - N/A   Scattered Clouds
1:35 PM 85.1 °F 86.4 °F 64.2 °F 49% 29.82 in 10.0 mi WSW 5.8 mph - N/A   Clear
1:55 PM 84.4 °F 85.6 °F 64.0 °F 50% 29.81 in 10.0 mi SW 5.8 mph - N/A   Clear
2:15 PM 85.6 °F 87.1 °F 64.2 °F 49% 29.81 in 10.0 mi WSW 4.6 mph - N/A   Clear
2:35 PM 84.7 °F 86.1 °F 64.2 °F 50% 29.81 in 10.0 mi WNW 4.6 mph - N/A   Scattered Clouds
2:55 PM 84.9 °F 86.3 °F 64.6 °F 50% 29.81 in 10.0 mi SW 5.8 mph - N/A   Clear
3:15 PM 83.5 °F 85.1 °F 64.6 °F 53% 29.80 in 10.0 mi SW 3.5 mph - N/A   Scattered Clouds
3:35 PM 83.8 °F 85.3 °F 64.6 °F 52% 29.80 in 10.0 mi SW 3.5 mph - N/A   Scattered Clouds
3:55 PM 86.0 °F 87.6 °F 64.8 °F 49% 29.80 in 10.0 mi SSW 4.6 mph - N/A   Scattered Clouds
4:15 PM 84.7 °F 86.3 °F 64.6 °F 51% 29.79 in 10.0 mi South 5.8 mph - N/A   Scattered Clouds
4:35 PM 85.3 °F 86.4 °F 63.5 °F 48% 29.79 in 10.0 mi WSW 5.8 mph - N/A   Clear
4:55 PM 86.2 °F 86.8 °F 62.8 °F 45% 29.78 in 10.0 mi SW 6.9 mph - N/A   Scattered Clouds
5:15 PM 85.6 °F 86.8 °F 63.7 °F 48% 29.78 in 10.0 mi WSW 8.1 mph - N/A   Clear
5:35 PM 83.5 °F 85.3 °F 65.3 °F 54% 29.78 in 10.0 mi SSW 6.9 mph - N/A   Clear
5:55 PM 82.9 °F 84.8 °F 65.3 °F 55% 29.77 in 10.0 mi SSW 6.9 mph - N/A   Clear
6:15 PM 83.7 °F 85.3 °F 64.8 °F 53% 29.77 in 10.0 mi WSW 8.1 mph - N/A   Clear
6:35 PM 84.2 °F 85.8 °F 64.9 °F 52% 29.77 in 10.0 mi SW 5.8 mph - N/A   Clear
6:55 PM 84.0 °F 85.6 °F 64.4 °F 52% 29.77 in 10.0 mi WSW 5.8 mph - N/A   Clear
7:15 PM 83.5 °F 84.9 °F 64.2 °F 52% 29.78 in 10.0 mi WSW 6.9 mph - N/A   Clear
7:35 PM 82.4 °F 84.1 °F 64.8 °F 55% 29.78 in 10.0 mi WSW 4.6 mph - N/A   Clear
7:55 PM 81.5 °F 83.4 °F 65.3 °F 58% 29.78 in 10.0 mi WSW 3.5 mph - N/A   Clear
8:15 PM 79.7 °F - 66.2 °F 63% 29.78 in 10.0 mi SW 3.5 mph - N/A   Clear
8:35 PM 78.8 °F - 66.6 °F 66% 29.78 in 10.0 mi Calm Calm - N/A   Clear
8:55 PM 77.0 °F - 66.6 °F 70% 29.78 in 10.0 mi Calm Calm - N/A   Clear
9:15 PM 76.1 °F - 67.1 °F 74% 29.78 in 10.0 mi Calm Calm - N/A   Clear
9:35 PM 75.6 °F - 67.1 °F 75% 29.78 in 10.0 mi Calm Calm - N/A   Clear
9:55 PM 73.0 °F - 67.3 °F 82% 29.78 in 10.0 mi Calm Calm - N/A   Clear
10:15 PM 73.8 °F - 67.6 °F 81% 29.78 in 10.0 mi Calm Calm - N/A   Clear
10:35 PM 74.3 °F - 68.0 °F 81% 29.78 in 10.0 mi SSW 3.5 mph - N/A   Clear
10:55 PM 75.7 °F - 68.2 °F 77% 29.81 in 10.0 mi SSW 3.5 mph - N/A   Clear
11:15 PM 76.1 °F - 68.2 °F 76% 29.81 in 10.0 mi Calm Calm - N/A   Clear
11:35 PM 76.3 °F - 68.5 °F 77% 29.81 in 10.0 mi Calm Calm - N/A   Scattered Clouds
11:55 PM 77.0 °F - 61.2 °F 58% 29.84 in 10.0 mi NW 17.3 mph 29.9 mph N/A   Mostly Cloudy